الصفحة الرئيسية
METAR-TAF:

METAR-TAF

مطار :

ساراتوغا, وايومنغ, الولايات المتحدة

دائرة عرض: 41-26-41N, خط طول: 106-49-25W, ارتفاع: 2137 متر

مراقبة الطقس الحالي

تاريخ ووقت الإصدار 28 دقيقة قبل الساعة 13:35UTC
ريح 5 عقدة من الجنوب/الجنوب الشرقي
درجة الحرارة -2°درجة مئوية
الرطوبة 93%
ضغط 1030 hPa
الرؤية: 16.1 كم
سماء صافية

METAR: KSAA 171335Z AUTO 16005KT 10SM CLR M02/M03 A3043 RMK AO2

زمن: 08:03 (14:03 UTC)


TAF: مفقودة

أرصاد الطقس والتوقعات من أكثر من 4000 مطار (تقارير الطقس للمطار METAR والتنبؤ بالطقس بالمطارTAF).

المحطات المتاحة هي النقط الصفراء والحمراء على الخريطة.

حرك المؤشر فوق النقطة لمعرفة اسم المحطة.

ثم انقر لمعرفة أرصاد وتوقعات الطقس.

لتغيير الخارطة: اضغط على الأزرار الخضراء مع رمز الصليب الأسود للتكبير. على الزر الأخضر مع شرطة للتصغير، أو على الأسهم الخضراء للخرائط المجاورة.


METAR-TAF: